Terug naar catalogus

FENGYUN 1C DEB *

ActiefPO
NORAD 46995·DEBRIS·🇨🇳 China

Gelanceerd May 10, 1999 vanaf Taiyuan Satellite Launch Center

Loading…

Volgende Passages (komende 24 uur)

TLE

VerouderdSource: Space-Track

Epoch: Sep 1, 2026, 15:24 UTC

1 46995U 99025EZV 26244.64200183  .00001238  00000-0  93763-3 0  9995
2 46995  98.5899 310.6056 0186553 117.5876 244.4367 13.87724921641136

Volg FENGYUN 1C DEB * in realtime met AllMySat

Download on the App Store